Home > Weather > Turin > Past weeks

Flag for Italy Past Weather in Turin, Italy — Yesterday and Last 2 Weeks

Now
77 °F

Sunny.


Feels Like: 79 °F
Forecast: 61 / 89 °F
Wind: 2 mph from Southeast

Location: Torino / Bric Della Croce

Current Time: Aug 27, 2016 at 3:38:44 PM

Latest Report: Aug 27, 2016 at 1:55 PM


Visibility: 10 mi

Pressure: 30.21 "Hg

Humidity: 65%

Dew Point: 64 °F

Location of TurinLocation

Past Weather in Turin — Graph

°F

Turin Temperature Yesterday

Maximum temperature yesterday: 81 °F (at 5:55 PM)
Minimum temperature yesterday: 68 °F (at 3:55 AM)
Average temperature yesterday: 73 °F

High & Low Weather Summary for the Past Weeks

 TemperatureHumidityPressure
High81 °F (Aug 25, 5:55 PM)100% (Aug 15, 2:55 AM)30.33 "Hg (Aug 15, 2:55 AM)
Low59 °F (Aug 22, 7:55 AM)30% (Aug 22, 3:55 AM)29.86 "Hg (Aug 18, 7:55 PM)
Average70 °F73%30.14 "Hg
* Reported Aug 12 1:55 PM — Aug 27 1:55 PM, Turin, Weather by CustomWeather, © 2016

Note: Actual official high and low records may vary slightly from our data, if they occured in-between our weather recording intervals... More about our weather records

Advertising

Turin Weather History for the Previous 24 Hours

Scroll right to see more
 ConditionsComfort  
Time TempWeatherWind HumidityBarometerVisibility
1:55 PM
Sat, Aug 27
77 °FSunny.2 mph65%30.21 "Hg10 mi
12:55 PM75 °FSunny.5 mph65%30.21 "Hg10 mi
11:55 AM73 °FSunny.2 mph69%30.21 "Hg10 mi
10:55 AM72 °FSunny.No wind73%30.21 "Hg10 mi
9:55 AM72 °FSunny.No wind69%30.21 "Hg10 mi
8:55 AM70 °FSunny.No wind73%30.21 "Hg10 mi
7:55 AM70 °FPassing clouds.No wind69%30.21 "HgN/A
6:55 AM70 °FPassing clouds.No wind73%30.21 "HgN/A
5:55 AM70 °FPassing clouds.No wind73%30.24 "HgN/A
4:55 AM70 °FPassing clouds.No wind73%30.24 "HgN/A
3:55 AM70 °FPassing clouds.No wind78%30.21 "HgN/A
2:55 AM68 °FPassing clouds.No wind88%30.21 "HgN/A
1:55 AM70 °FPassing clouds.No wind83%30.21 "HgN/A
12:55 AM70 °FPassing clouds.8 mph83%30.21 "HgN/A
11:55 PM
Fri, Aug 26
70 °FPassing clouds.7 mph78%30.21 "HgN/A
10:55 PM72 °FClear.7 mph73%30.21 "Hg10 mi
9:55 PM72 °FClear.6 mph73%30.18 "Hg10 mi
8:55 PM73 °FSunny.8 mph69%30.18 "Hg10 mi
7:55 PM75 °FSunny.7 mph65%30.15 "Hg10 mi
6:55 PM79 °FSunny.5 mph58%30.15 "Hg10 mi
5:55 PM81 °FSunny.No wind54%30.15 "Hg10 mi
4:55 PM79 °FSunny.No wind51%30.15 "Hg10 mi
3:55 PM79 °FSunny.No wind54%30.18 "Hg10 mi
Weather by CustomWeather, © 2016

See weather overviewHow to use our weather pages